Theta_e
322 316 311 314 315 317 315 312 311 314 318 314 314 315 317 321 324 325 329 332 333 334 338 341 344 345 346 347 348 349 349 351 348 344 342 343 341 341 342 341 340 337 337 336
316 313 318 320 318 315 314 312 311 313 316 315 315 314 318 320 321 324 327 332 332 333 336 340 342 344 345 343 346 348 346 348 346 343 345 347 343 342 341 339 339 338 336 334
314 314 320 317 314 312 312 311 312 311 314 315 313 311 314 318 323 325 328 330 332 331 335 337 340 341 342 343 344 342 345 345 347 347 345 344 343 342 342 342 336 334 334 331
315 317 315 313 311 313 309 314 314 312 310 304 313 302 312 317 321 324 326 328 329 331 337 337 339 340 341 341 342 343 345 345 345 346 343 343 337 334 334 334 335 335 331 327
312 314 313 311 312 314 310 315 313 312 309 309 309 306 311 311 313 315 325 328 329 332 336 335 337 339 340 342 340 341 343 344 344 344 342 340 337 333 331 332 331 333 330 326
314 319 316 314 315 315 316 314 313 312 309 302 305 305 306 308 314 318 322 327 329 331 334 337 338 339 340 341 340 342 341 343 342 341 340 338 334 329 327 328 322 324 323 322
313 314 317 318 313 316 316 312 304 301 301 300 309 307 310 317 319 319 319 328 329 333 336 335 335 336 337 335 337 337 338 338 338 335 332 331 331 330 329 327 322 321 317 319
306 304 313 318 315 312 312 311 303 297 298 302 308 303 311 321 321 322 323 327 329 333 334 333 334 333 332 333 334 333 333 331 330 329 329 331 330 329 325 325 319 318 318 320
308 308 317 318 318 317 312 308 313 307 308 302 305 310 315 320 321 321 325 328 329 329 332 331 329 328 329 330 330 327 326 326 328 329 331 332 332 329 324 323 324 321 324 321
314 307 314 316 317 317 315 316 307 308 298 296 303 303 305 314 311 321 322 324 327 329 329 325 326 326 328 328 327 328 327 327 328 328 330 330 329 327 325 322 323 324 324 324
316 314 312 316 313 312 313 311 311 312 305 298 299 302 317 314 318 318 321 325 325 326 324 323 325 326 326 326 325 327 327 326 326 327 329 329 327 325 323 321 322 323 325 324
319 317 308 310 316 317 316 314 313 305 303 308 303 304 317 319 320 322 321 325 326 327 324 323 324 324 324 324 325 326 327 326 327 327 328 328 327 325 322 321 322 324 324 324
320 312 304 305 311 318 313 316 315 313 312 305 302 305 317 320 320 319 320 324 327 324 323 321 322 322 323 324 325 325 326 326 326 326 325 327 326 325 324 323 324 324 324 324
320 313 308 303 308 313 310 312 312 311 305 306 307 306 311 315 313 317 324 323 322 322 321 322 321 321 323 324 325 325 325 326 326 325 324 324 324 325 325 325 323 323 324 323
321 312 313 313 313 313 311 310 310 307 310 303 305 304 308 313 318 321 322 319 313 313 321 320 321 321 322 326 326 326 327 327 327 324 322 323 325 325 325 325 324 324 324 324
322 312 313 310 313 311 309 311 310 310 308 311 309 304 314 318 320 321 317 315 312 313 319 322 323 323 324 324 326 326 326 325 324 322 322 323 323 324 325 325 325 326 325 324
316 315 311 306 311 310 305 309 309 309 312 311 306 308 312 311 310 309 313 315 314 319 319 321 324 325 327 326 327 323 323 324 323 323 323 323 323 322 324 324 325 325 327 328
317 315 313 307 310 298 311 317 313 311 310 311 310 308 308 309 311 312 312 315 316 316 318 320 323 324 323 321 322 323 323 323 323 323 323 323 323 322 323 324 324 330 330 329
321 316 310 305 305 308 310 313 313 309 308 314 312 313 315 316 315 316 318 316 317 318 319 320 321 322 324 325 325 325 324 323 323 322 324 325 324 323 323 323 326 331 330 326
320 320 311 308 302 298 310 316 319 317 302 316 316 315 315 316 306 311 317 319 320 322 323 323 324 326 326 325 327 324 325 325 322 321 322 325 327 326 325 326 327 329 327 326
313 313 308 305 305 307 316 318 319 304 306 317 317 317 315 312 315 319 321 321 323 323 322 325 325 319 318 320 322 319 317 314 314 316 320 321 320 320 323 323 325 323 326 327
310 308 307 308 303 300 320 316 311 317 319 318 317 316 316 318 318 320 322 322 323 322 324 321 317 314 314 314 315 313 310 310 312 313 313 314 316 315 314 316 319 319 316 316
308 313 313 311 313 323 323 322 325 323 319 318 318 318 319 318 319 322 320 319 318 317 317 317 315 314 312 311 309 307 307 307 308 309 310 311 312 312 311 313 313 311 314 310
319 322 314 314 316 320 323 325 325 322 320 320 320 319 320 321 321 319 318 316 315 315 314 314 313 311 309 308 306 305 304 304 304 304 305 306 305 302 306 306 307 307 306 306
318 320 316 315 318 321 321 323 322 319 321 320 320 322 323 321 318 317 315 314 313 313 312 311 310 308 305 305 303 302 301 301 300 300 300 300 299 300 300 301 300 299 303 297
318 315 307 313 318 317 319 322 321 320 319 319 318 317 318 318 316 316 314 313 312 309 308 306 305 304 304 302 300 299 299 299 298 298 297 296 296 297 297 297 297 296 295 295
Wind_Speed
19 15 12 2 24 19 15 13 15 9 13 4 11 14 13 7 8 10 7 7 7 9 12 9 8 7 8 7 7 8 9 9 7 7 6 5 5 6 6 5 3 2 4 3
15 12 25 26 9 13 18 17 15 4 19 4 16 15 14 12 9 9 8 8 7 12 12 10 10 9 10 8 8 8 10 7 5 4 7 3 5 5 3 3 5 2 2 4
16 9 24 11 12 16 16 16 21 20 17 15 20 16 6 15 23 10 7 9 11 14 14 11 12 11 11 11 9 9 9 6 4 5 4 3 3 3 2 4 4 4 2 4
14 11 8 12 16 14 16 13 16 18 18 17 18 16 17 13 15 14 13 11 12 12 14 12 13 12 12 11 10 8 6 5 4 2 1 3 5 4 6 4 6 3 4 4
14 10 11 14 13 13 18 18 18 20 19 22 21 20 8 17 22 16 11 14 12 15 13 13 12 12 11 10 9 8 6 5 4 3 2 3 3 5 3 2 3 3 2 2
15 14 16 18 13 18 19 20 16 22 20 18 4 8 11 7 11 4 7 11 9 15 15 11 11 11 11 13 11 9 9 7 5 5 6 7 6 5 6 5 5 1 2 1
21 20 18 5 10 17 17 12 15 14 14 11 9 14 13 8 7 6 5 10 9 15 14 13 13 11 10 10 10 10 8 6 7 7 6 5 4 3 2 4 3 4 3 3
13 14 8 7 9 14 15 17 14 22 17 18 22 19 11 14 4 4 0 11 14 12 15 14 12 11 11 10 8 7 9 7 8 6 5 5 2 2 2 5 4 4 4 4
15 15 12 9 6 11 18 14 20 14 21 19 10 15 11 8 11 5 7 11 13 13 15 12 9 7 9 8 6 7 10 8 7 7 4 4 1 3 5 3 3 3 3 6
12 17 15 17 17 12 21 14 16 10 10 14 18 7 8 6 12 11 10 12 12 14 14 10 9 9 8 9 8 7 6 8 6 4 4 4 3 1 4 3 4 3 4 5
12 12 14 18 17 14 9 9 3 10 6 8 18 6 21 1 9 4 7 11 12 9 15 11 11 11 10 9 11 7 7 6 5 5 3 1 3 3 4 4 5 5 6 6
8 8 15 19 19 17 6 14 15 10 12 11 4 12 9 12 20 10 3 12 18 20 15 13 13 12 10 9 9 10 2 3 2 3 0 2 2 4 5 5 6 6 7 7
10 7 14 12 10 7 6 11 9 7 8 16 16 10 6 14 20 31 8 4 17 16 16 13 12 10 7 6 5 4 5 3 5 5 3 4 2 4 6 7 7 7 8 8
2 9 14 13 17 15 15 16 12 4 3 12 14 13 10 7 8 19 14 17 15 12 9 8 7 9 9 5 3 3 3 4 4 5 5 5 4 6 6 7 8 9 9 10
5 11 14 15 15 16 13 13 14 12 12 5 15 11 8 11 7 11 13 19 14 19 14 15 7 1 8 9 5 5 5 5 4 5 4 5 5 6 6 7 8 9 10 10
4 9 10 15 19 5 10 7 6 5 7 11 10 6 13 13 12 12 14 15 14 9 11 10 16 8 3 3 5 0 3 1 1 4 6 5 5 6 7 9 9 10 10 10
5 8 10 13 3 8 3 3 3 3 7 11 6 6 11 13 12 12 8 8 9 14 17 17 11 3 2 4 8 2 2 4 4 4 5 6 5 8 9 10 11 12 10 10
8 8 7 10 11 8 6 5 1 6 6 8 8 6 3 1 3 2 5 8 6 6 6 5 7 11 7 4 5 4 3 4 5 5 6 9 8 10 13 12 12 12 10 11
5 8 7 7 10 7 9 7 8 6 8 5 6 5 8 7 9 12 11 3 5 7 6 5 6 7 7 8 6 5 5 6 6 8 9 11 11 12 12 13 13 11 10 9
7 6 8 9 11 9 8 5 4 5 2 8 7 8 12 13 7 10 7 6 7 7 6 6 7 10 10 9 7 5 10 11 11 11 12 12 12 11 12 13 13 11 11 12
11 9 11 9 9 2 7 8 6 8 3 10 11 10 6 5 5 7 8 7 8 7 6 10 14 10 10 10 9 10 10 11 12 12 12 11 10 11 11 12 12 12 12 12
9 8 7 8 6 4 7 5 8 3 6 4 3 4 6 7 6 9 9 8 9 10 12 11 9 8 9 11 9 9 10 11 11 11 12 12 12 11 11 13 11 12 11 11
7 5 4 6 2 4 4 6 5 6 7 5 4 3 5 7 7 9 8 9 8 8 8 8 7 7 8 9 9 9 9 10 11 11 11 11 12 10 12 10 10 9 5 6
6 7 8 5 2 7 9 7 7 8 6 3 2 4 6 9 8 9 8 7 7 7 7 6 6 7 7 8 8 9 11 12 12 12 12 11 11 12 11 11 10 10 7 8
2 11 7 10 13 9 7 7 7 6 6 4 6 6 7 9 8 9 8 6 6 6 7 7 7 6 6 7 8 10 10 11 11 11 11 10 10 11 11 9 9 9 9 7
3 3 3 16 7 10 7 10 8 9 7 9 10 10 6 6 8 7 7 6 6 7 7 6 6 7 7 7 8 10 10 11 11 11 10 9 10 9 9 9 10 2 4 5
Wind_Direction
214 243 253 0 221 235 227 297 302 343 302 290 281 304 305 279 198 248 212 206 196 156 125 133 128 136 130 128 113 132 141 138 161 170 155 158 176 188 175 172 146 161 182 168
228 235 337 297 331 301 296 286 284 356 263 288 276 275 274 293 239 238 214 203 209 142 148 131 139 141 123 125 127 132 131 136 156 154 127 195 170 180 163 122 162 122 60 71
259 226 223 261 293 283 280 292 297 295 305 283 267 299 227 234 227 206 179 197 199 160 150 143 141 135 133 131 136 143 131 125 81 101 118 139 103 85 150 183 171 107 76 29
262 303 304 310 281 280 279 291 280 287 300 295 313 285 284 266 182 201 173 178 181 158 148 146 144 141 130 136 140 131 117 133 112 217 228 127 187 201 142 166 61 107 35 29
277 255 230 238 280 301 291 299 306 289 281 277 270 305 292 63 253 9 219 180 185 152 158 154 141 135 134 130 128 130 137 123 126 82 51 197 341 150 152 65 123 26 133 252
280 271 279 276 279 290 289 283 274 269 267 270 91 201 267 178 324 309 101 147 175 153 134 140 134 133 138 148 153 151 153 146 132 96 88 61 58 14 359 38 310 351 278 301
243 244 247 297 296 277 259 306 283 279 253 247 256 262 280 45 50 11 313 132 150 135 135 152 158 147 163 139 149 157 135 141 126 125 118 104 91 67 152 309 26 308 337 17
296 291 122 216 297 310 309 302 291 302 304 307 319 296 29 22 27 63 343 130 138 146 158 175 131 170 158 154 155 160 123 131 135 137 128 114 133 154 267 98 343 324 333 343
297 288 330 301 306 304 300 293 307 283 270 272 305 301 236 133 20 146 125 133 150 170 151 116 148 162 117 137 140 139 129 131 160 146 145 151 102 33 20 337 287 20 336 335
295 293 297 301 292 250 250 273 290 305 343 309 295 278 270 100 159 207 173 160 158 140 141 134 141 141 127 153 127 119 154 149 156 165 166 150 129 260 356 280 271 301 315 321
290 282 293 300 277 294 330 250 168 258 148 217 270 330 346 295 320 23 157 167 135 124 136 160 154 134 154 149 142 148 157 166 168 202 189 213 303 348 334 288 287 305 313 305
0 315 294 290 290 278 301 290 298 314 307 274 320 282 136 271 357 342 359 171 149 146 171 167 141 151 160 165 146 146 170 320 254 234 127 296 289 341 321 292 290 301 302 302
343 284 300 292 284 52 294 307 295 275 308 301 304 304 14 351 358 331 294 188 145 154 171 138 138 145 159 149 132 146 170 245 287 323 289 200 228 279 296 296 287 297 297 292
293 270 263 285 303 313 303 303 296 259 224 271 292 310 26 356 349 280 32 50 348 98 85 112 117 165 161 162 194 212 232 257 293 322 334 330 306 298 298 299 291 284 287 288
268 277 284 290 311 294 311 312 359 322 310 354 289 43 352 330 309 5 62 54 44 352 54 22 298 350 169 163 178 251 250 283 325 320 303 277 279 279 283 285 287 285 284 286
194 285 293 296 273 289 290 32 314 306 360 302 71 69 34 36 47 55 61 66 63 356 347 216 260 244 170 196 221 303 19 323 300 255 254 271 290 285 277 274 273 269 269 274
263 297 297 288 327 306 221 353 9 325 9 322 308 47 51 48 43 31 33 108 186 219 231 233 231 60 94 40 48 46 206 206 224 254 272 272 286 283 278 271 268 268 267 269
280 278 282 272 278 256 95 92 89 75 95 91 120 163 132 177 218 118 259 240 213 301 28 26 56 67 75 97 125 154 215 235 260 282 292 299 288 291 294 293 297 292 282 275
242 277 290 271 302 130 149 172 198 213 150 143 140 178 198 205 212 212 226 143 65 65 65 67 97 102 79 40 18 347 328 317 302 301 329 331 316 299 294 295 291 285 290 282
222 242 268 287 294 300 135 128 204 144 246 160 184 194 178 203 232 120 161 117 84 65 50 40 60 69 38 9 348 344 17 12 4 340 324 319 332 320 307 301 301 301 289 277
215 238 253 266 252 19 112 151 184 234 131 174 212 235 193 138 97 97 113 84 77 56 49 88 58 54 30 15 21 32 23 12 349 342 340 334 338 329 328 351 339 339 318 308
255 275 263 228 283 277 138 173 239 124 157 191 201 148 126 123 110 89 81 77 72 55 55 63 67 55 44 30 25 35 23 359 350 348 344 340 345 331 336 337 330 332 350 351
247 255 322 311 7 153 228 272 98 188 185 185 194 183 147 129 110 106 99 86 79 70 71 69 73 83 57 46 35 24 11 354 343 341 336 329 329 329 325 320 313 316 318 348
220 196 230 270 15 235 227 214 204 207 210 168 217 177 175 129 127 123 109 101 90 72 66 58 59 52 45 31 23 14 2 353 343 343 330 334 330 341 325 319 325 339 9 338
16 172 287 280 258 224 223 207 185 195 120 146 81 75 87 126 136 128 120 110 93 77 65 43 28 26 28 13 14 7 1 354 346 341 329 344 335 324 322 332 338 324 344 17
124 149 59 299 347 218 168 143 146 148 135 90 109 121 133 145 134 125 113 100 83 66 43 40 24 4 360 5 1 1 357 352 347 336 340 344 324 327 328 334 325 312 165 220